| time (UTC) | temp F | wind direction | speed MPH | gust MPH | rain 1hr in | rain 24hr in | rain mn in | humidity % | barometer mb |
| 20260902163611 | 78 | 174 | 5.0 | 13.0 | 0.00 | 0.00 | 0.00 | 33 | 1016.3 |
| 20260902163119 | 77 | 148 | 4.0 | 13.0 | 0.00 | 0.00 | 0.00 | 34 | 1016.3 |
| 20260902162621 | 77 | 221 | 5.0 | 13.0 | 0.00 | 0.00 | 0.00 | 34 | 1016.3 |
| 20260902162131 | 77 | 198 | 4.0 | 15.0 | 0.00 | 0.00 | 0.00 | 35 | 1016.5 |
| 20260902161613 | 77 | 179 | 7.0 | 21.0 | 0.00 | 0.00 | 0.00 | 34 | 1016.4 |
| 20260902161142 | 77 | 170 | 8.0 | 21.0 | 0.00 | 0.00 | 0.00 | 34 | 1016.5 |
| 20260902160622 | 77 | 138 | 7.0 | 13.0 | 0.00 | 0.00 | 0.00 | 33 | 1016.4 |
| 20260902160124 | 77 | 207 | 6.0 | 13.0 | 0.00 | 0.00 | 0.00 | 34 | 1016.4 |
| 20260902155634 | 77 | 165 | 5.0 | 10.0 | 0.00 | 0.00 | 0.00 | 35 | 1016.3 |
| 20260902155114 | 76 | 185 | 3.0 | 10.0 | 0.00 | 0.00 | 0.00 | 36 | 1016.3 |
| 20260902154623 | 76 | 86 | 2.0 | 11.0 | 0.00 | 0.00 | 0.00 | 36 | 1016.3 |
| 20260902154145 | 76 | 208 | 4.0 | 11.0 | 0.00 | 0.00 | 0.00 | 35 | 1016.4 |
| 20260902153633 | 77 | 255 | 4.0 | 11.0 | 0.00 | 0.00 | 0.00 | 35 | 1016.4 |
| 20260902153114 | 76 | 104 | 3.0 | 11.0 | 0.00 | 0.00 | 0.00 | 36 | 1016.4 |
| 20260902152615 | 76 | 140 | 5.0 | 11.0 | 0.00 | 0.00 | 0.00 | 35 | 1016.3 |
| 20260902152123 | 76 | 219 | 4.0 | 13.0 | 0.00 | 0.00 | 0.00 | 36 | 1016.3 |
| 20260902151645 | 76 | 165 | 5.0 | 11.0 | 0.00 | 0.00 | 0.00 | 36 | 1016.3 |
| 20260902151134 | 76 | 133 | 3.0 | 11.0 | 0.00 | 0.00 | 0.00 | 36 | 1016.2 |
| 20260902150616 | 76 | 214 | 5.0 | 14.0 | 0.00 | 0.00 | 0.00 | 35 | 1016.2 |
| 20260902150118 | 75 | 127 | 4.0 | 14.0 | 0.00 | 0.00 | 0.00 | 36 | 1016.2 |
| 20260902145627 | 75 | 162 | 5.0 | 14.0 | 0.00 | 0.00 | 0.00 | 35 | 1016.1 |
| 20260902145129 | 75 | 173 | 7.0 | 19.0 | 0.00 | 0.00 | 0.00 | 35 | 1016.0 |
| 20260902144610 | 75 | 179 | 7.0 | 19.0 | 0.00 | 0.00 | 0.00 | 36 | 1016.0 |
| 20260902144118 | 74 | 200 | 6.0 | 11.0 | 0.00 | 0.00 | 0.00 | 36 | 1015.8 |
| 20260902143620 | 74 | 189 | 3.0 | 14.0 | 0.00 | 0.00 | 0.00 | 37 | 1015.8 |
| 20260902143149 | 73 | 271 | 6.0 | 14.0 | 0.00 | 0.00 | 0.00 | 38 | 1015.8 |
| 20260902142629 | 72 | 235 | 4.0 | 11.0 | 0.00 | 0.00 | 0.00 | 40 | 1015.8 |
| 20260902142138 | 71 | 222 | 4.0 | 11.0 | 0.00 | 0.00 | 0.00 | 41 | 1015.9 |
| 20260902141619 | 71 | 199 | 3.0 | 11.0 | 0.00 | 0.00 | 0.00 | 41 | 1015.7 |
| 20260902141124 | 70 | 146 | 2.0 | 10.0 | 0.00 | 0.00 | 0.00 | 43 | 1015.5 |
| 20260902140625 | 70 | 197 | 4.0 | 10.0 | 0.00 | 0.00 | 0.00 | 42 | 1015.5 |
| 20260902140111 | 70 | 175 | 2.0 | 6.0 | 0.00 | 0.00 | 0.00 | 43 | 1015.5 |
| 20260902135620 | 69 | 162 | 2.0 | 6.0 | 0.00 | 0.00 | 0.00 | 43 | 1015.5 |
| 20260902135138 | 69 | 155 | 1.0 | 6.0 | 0.00 | 0.00 | 0.00 | 44 | 1015.5 |
| 20260902134626 | 69 | 144 | 2.0 | 8.0 | 0.00 | 0.00 | 0.00 | 44 | 1015.5 |
| 20260902134112 | 69 | 182 | 2.0 | 8.0 | 0.00 | 0.00 | 0.00 | 44 | 1015.5 |
| 20260902133614 | 68 | 150 | 1.0 | 5.0 | 0.00 | 0.00 | 0.00 | 45 | 1015.6 |
| 20260902133122 | 68 | 115 | 2.0 | 3.0 | 0.00 | 0.00 | 0.00 | 45 | 1015.7 |
| 20260902132624 | 68 | 143 | 1.0 | 3.0 | 0.00 | 0.00 | 0.00 | 46 | 1015.7 |
| 20260902132124 | 68 | 121 | 0.0 | 9.0 | 0.00 | 0.00 | 0.00 | 46 | 1015.8 |
| 20260902131613 | 68 | 158 | 1.0 | 9.0 | 0.00 | 0.00 | 0.00 | 46 | 1015.7 |
| 20260902131115 | 68 | 103 | 3.0 | 6.0 | 0.00 | 0.00 | 0.00 | 47 | 1015.7 |
| 20260902130618 | 68 | 152 | 0.0 | 5.0 | 0.00 | 0.00 | 0.00 | 48 | 1015.6 |
| 20260902130137 | 68 | 146 | 1.0 | 5.0 | 0.00 | 0.00 | 0.00 | 49 | 1015.4 |
| 20260902125624 | 67 | 54 | 2.0 | 5.0 | 0.00 | 0.00 | 0.00 | 48 | 1015.4 |
| 20260902125111 | 67 | 146 | 0.0 | 4.0 | 0.00 | 0.00 | 0.00 | 50 | 1015.5 |
| 20260902124612 | 66 | 79 | 0.0 | 2.0 | 0.00 | 0.00 | 0.00 | 52 | 1015.5 |
| 20260902124121 | 66 | 139 | 1.0 | 4.0 | 0.00 | 0.00 | 0.00 | 52 | 1015.6 |
| 20260902123622 | 66 | 226 | 1.0 | 4.0 | 0.00 | 0.00 | 0.00 | 53 | 1015.6 |
| 20260902123124 | 66 | 58 | 0.0 | 3.0 | 0.00 | 0.00 | 0.00 | 55 | 1015.6 |
| 20260902122633 | 66 | 145 | 1.0 | 3.0 | 0.00 | 0.00 | 0.00 | 56 | 1015.7 |
| 20260902122115 | 66 | 58 | 1.0 | 2.0 | 0.00 | 0.00 | 0.00 | 55 | 1015.6 |
| 20260902121618 | 65 | 11 | 0.0 | 1.0 | 0.00 | 0.00 | 0.00 | 55 | 1015.4 |
| 20260902121147 | 65 | 11 | 0.0 | 1.0 | 0.00 | 0.00 | 0.00 | 56 | 1015.4 |
| 20260902120628 | 65 | 8 | 0.0 | 2.0 | 0.00 | 0.00 | 0.00 | 56 | 1015.4 |
| 20260902120138 | 65 | 63 | 0.0 | 2.0 | 0.00 | 0.00 | 0.00 | 56 | 1015.4 |
| 20260902115620 | 65 | 64 | 1.0 | 1.0 | 0.00 | 0.00 | 0.00 | 56 | 1015.3 |
| 20260902115129 | 65 | 63 | 0.0 | 1.0 | 0.00 | 0.00 | 0.00 | 54 | 1015.5 |
| 20260902114611 | 65 | 63 | 1.0 | 1.0 | 0.00 | 0.00 | 0.00 | 56 | 1015.4 |
| 20260902114113 | 66 | 58 | 0.0 | 2.0 | 0.00 | 0.00 | 0.00 | 54 | 1015.4 |
| 20260902113614 | 66 | 58 | 1.0 | 3.0 | 0.00 | 0.00 | 0.00 | 53 | 1015.2 |
| 20260902113123 | 66 | 346 | 1.0 | 2.0 | 0.00 | 0.00 | 0.00 | 53 | 1015.2 |
| 20260902112625 | 66 | 211 | 0.0 | 4.0 | 0.00 | 0.00 | 0.00 | 51 | 1015.2 |
| 20260902112133 | 66 | 212 | 1.0 | 4.0 | 0.00 | 0.00 | 0.00 | 51 | 1015.1 |
| 20260902111615 | 65 | 66 | 1.0 | 2.0 | 0.00 | 0.00 | 0.00 | 52 | 1015.2 |
| 20260902111117 | 65 | 58 | 0.0 | 1.0 | 0.00 | 0.00 | 0.00 | 52 | 1015.2 |
| 20260902110122 | 65 | 57 | 0.0 | 1.0 | 0.00 | 0.00 | 0.00 | 53 | 1015.2 |
| 20260902105625 | 65 | 57 | 0.0 | 1.0 | 0.00 | 0.00 | 0.00 | 53 | 1015.1 |
| 20260902105150 | 66 | 58 | 0.0 | 2.0 | 0.00 | 0.00 | 0.00 | 54 | 1015.1 |
| 20260902104613 | 66 | 58 | 1.0 | 2.0 | 0.00 | 0.00 | 0.00 | 52 | 1015.1 |
| 20260902104114 | 66 | 56 | 0.0 | 1.0 | 0.00 | 0.00 | 0.00 | 52 | 1015.1 |
| 20260902103622 | 66 | 21 | 0.0 | 1.0 | 0.00 | 0.00 | 0.00 | 50 | 1015.2 |
| 20260902103124 | 66 | 271 | 0.0 | 1.0 | 0.00 | 0.00 | 0.00 | 50 | 1015.1 |
| 20260902102626 | 66 | 88 | 0.0 | 1.0 | 0.00 | 0.00 | 0.00 | 49 | 1015.1 |
| 20260902102133 | 67 | 88 | 0.0 | 1.0 | 0.00 | 0.00 | 0.00 | 48 | 1015.1 |
| 20260902101615 | 67 | 81 | 0.0 | 2.0 | 0.00 | 0.00 | 0.00 | 47 | 1015.0 |
| 20260902101138 | 67 | 81 | 1.0 | 2.0 | 0.00 | 0.00 | 0.00 | 45 | 1015.0 |
| 20260902100619 | 67 | 58 | 1.0 | 2.0 | 0.00 | 0.00 | 0.00 | 45 | 1015.0 |
| 20260902100147 | 67 | 64 | 0.0 | 1.0 | 0.00 | 0.00 | 0.00 | 45 | 1015.1 |
| 20260902095636 | 68 | 113 | 0.0 | 3.0 | 0.00 | 0.00 | 0.00 | 45 | 1015.1 |
| 20260902095117 | 67 | 63 | 1.0 | 3.0 | 0.00 | 0.00 | 0.00 | 45 | 1015.1 |
| 20260902094619 | 67 | 70 | 1.0 | 2.0 | 0.00 | 0.00 | 0.00 | 45 | 1015.2 |
| 20260902094120 | 68 | 154 | 0.0 | 0.0 | 0.00 | 0.00 | 0.00 | 45 | 1015.4 |
| 20260902093613 | 68 | 154 | 0.0 | 4.0 | 0.00 | 0.00 | 0.00 | 44 | 1015.4 |
| 20260902093115 | 68 | 154 | 1.0 | 4.0 | 0.00 | 0.00 | 0.00 | 43 | 1015.3 |
| 20260902092614 | 68 | 89 | 0.0 | 2.0 | 0.00 | 0.00 | 0.00 | 45 | 1015.4 |
| 20260902092122 | 68 | 89 | 1.0 | 3.0 | 0.00 | 0.00 | 0.00 | 45 | 1015.4 |
| 20260902091641 | 68 | 63 | 1.0 | 3.0 | 0.00 | 0.00 | 0.00 | 46 | 1015.4 |
| 20260902091113 | 68 | 277 | 1.0 | 2.0 | 0.00 | 0.00 | 0.00 | 48 | 1015.4 |
| 20260902090657 | 68 | 82 | 1.0 | 2.0 | 0.00 | 0.00 | 0.00 | 47 | 1015.4 |
| 20260902090117 | 68 | 2 | 0.0 | 1.0 | 0.00 | 0.00 | 0.00 | 47 | 1015.4 |
| 20260902085620 | 68 | 2 | 0.0 | 1.0 | 0.00 | 0.00 | 0.00 | 45 | 1015.4 |
| 20260902085129 | 69 | 32 | 0.0 | 2.0 | 0.00 | 0.00 | 0.00 | 46 | 1015.2 |
| 20260902084615 | 68 | 32 | 1.0 | 2.0 | 0.00 | 0.00 | 0.00 | 46 | 1015.3 |
| 20260902084132 | 68 | 68 | 0.0 | 2.0 | 0.00 | 0.00 | 0.00 | 47 | 1015.3 |
| 20260902083619 | 68 | 290 | 1.0 | 2.0 | 0.00 | 0.00 | 0.00 | 47 | 1015.3 |
| 20260902083121 | 68 | 94 | 1.0 | 2.0 | 0.00 | 0.00 | 0.00 | 48 | 1015.3 |
| 20260902082630 | 68 | 44 | 0.0 | 2.0 | 0.00 | 0.00 | 0.00 | 47 | 1015.4 |
| 20260902082114 | 68 | 44 | 1.0 | 2.0 | 0.00 | 0.00 | 0.00 | 47 | 1015.4 |
| 20260902081616 | 68 | 34 | 0.0 | 2.0 | 0.00 | 0.00 | 0.00 | 47 | 1015.4 |
| 20260902081118 | 68 | 34 | 1.0 | 2.0 | 0.00 | 0.00 | 0.00 | 48 | 1015.5 |
| 20260902080627 | 69 | 195 | 0.0 | 1.0 | 0.00 | 0.00 | 0.00 | 46 | 1015.5 |
| 20260902080127 | 69 | 195 | 0.0 | 3.0 | 0.00 | 0.00 | 0.00 | 46 | 1015.5 |
| 20260902075636 | 69 | 82 | 0.0 | 2.0 | 0.00 | 0.00 | 0.00 | 47 | 1015.5 |
| 20260902075115 | 69 | 82 | 0.0 | 2.0 | 0.00 | 0.00 | 0.00 | 47 | 1015.4 |
| 20260902074624 | 69 | 181 | 0.0 | 1.0 | 0.00 | 0.00 | 0.00 | 46 | 1015.4 |
| 20260902074125 | 69 | 180 | 0.0 | 2.0 | 0.00 | 0.00 | 0.00 | 45 | 1015.3 |
| 20260902073626 | 70 | 195 | 1.0 | 2.0 | 0.00 | 0.00 | 0.00 | 45 | 1015.2 |
| 20260902073134 | 70 | 86 | 1.0 | 2.0 | 0.00 | 0.00 | 0.00 | 46 | 1015.2 |
| 20260902072615 | 70 | 207 | 0.0 | 2.0 | 0.00 | 0.00 | 0.00 | 46 | 1015.1 |
| 20260902072124 | 70 | 207 | 0.0 | 5.0 | 0.00 | 0.00 | 0.00 | 46 | 1015.1 |
| 20260902071624 | 70 | 97 | 1.0 | 3.0 | 0.00 | 0.00 | 0.00 | 46 | 1015.0 |
| 20260902071125 | 70 | 81 | 1.0 | 3.0 | 0.00 | 0.00 | 0.00 | 48 | 1015.0 |
| 20260902070634 | 70 | 103 | 2.0 | 3.0 | 0.00 | 0.00 | 0.00 | 48 | 1015.1 |
| 20260902070116 | 70 | 140 | 1.0 | 3.0 | 0.00 | 0.00 | 0.00 | 48 | 1015.1 |
| 20260902065617 | 70 | 197 | 1.0 | 3.0 | 0.00 | 0.00 | 0.00 | 49 | 1015.0 |
| 20260902065146 | 70 | 94 | 1.0 | 2.0 | 0.00 | 0.00 | 0.00 | 48 | 1015.0 |
| 20260902064625 | 71 | 122 | 0.0 | 4.0 | 0.00 | 0.00 | 0.00 | 47 | 1015.1 |
| 20260902064135 | 71 | 105 | 1.0 | 2.0 | 0.00 | 0.00 | 0.00 | 47 | 1014.9 |
| 20260902063637 | 71 | 89 | 0.0 | 3.0 | 0.00 | 0.00 | 0.00 | 46 | 1014.9 |
| 20260902063124 | 71 | 80 | 0.0 | 3.0 | 0.00 | 0.00 | 0.00 | 46 | 1014.9 |
| 20260902062642 | 71 | 60 | 1.0 | 2.0 | 0.00 | 0.00 | 0.00 | 46 | 1014.9 |
| 20260902062130 | 71 | 57 | 0.0 | 2.0 | 0.00 | 0.00 | 0.00 | 46 | 1014.9 |
| 20260902061616 | 71 | 57 | 0.0 | 2.0 | 0.00 | 0.00 | 0.00 | 45 | 1015.0 |
| 20260902061118 | 71 | 146 | 0.0 | 2.0 | 0.00 | 0.00 | 0.00 | 44 | 1014.9 |
| 20260902060627 | 72 | 146 | 0.0 | 2.0 | 0.00 | 0.00 | 0.00 | 43 | 1014.9 |
| 20260902060144 | 72 | 133 | 0.0 | 6.0 | 0.00 | 0.00 | 0.00 | 42 | 1014.9 |
| 20260902055615 | 73 | 165 | 2.0 | 6.0 | 0.00 | 0.00 | 0.00 | 41 | 1014.9 |
| 20260902055133 | 73 | 117 | 0.0 | 2.0 | 0.00 | 0.00 | 0.00 | 40 | 1014.9 |
| 20260902054640 | 73 | 156 | 0.0 | 2.0 | 0.00 | 0.00 | 0.00 | 39 | 1014.9 |
| 20260902054120 | 74 | 134 | 1.0 | 4.0 | 0.00 | 0.00 | 0.00 | 39 | 1014.9 |
| 20260902053628 | 73 | 121 | 3.0 | 4.0 | 0.00 | 0.00 | 0.00 | 39 | 1014.9 |
| 20260902053159 | 73 | 89 | 1.0 | 3.0 | 0.00 | 0.00 | 0.00 | 40 | 1014.9 |
| 20260902052617 | 73 | 121 | 1.0 | 7.0 | 0.00 | 0.00 | 0.00 | 40 | 1015.0 |
| 20260902052140 | 73 | 129 | 2.0 | 7.0 | 0.00 | 0.00 | 0.00 | 40 | 1015.0 |
| 20260902051628 | 73 | 127 | 0.0 | 2.0 | 0.00 | 0.00 | 0.00 | 42 | 1015.0 |
| 20260902051128 | 73 | 136 | 0.0 | 2.0 | 0.00 | 0.00 | 0.00 | 41 | 1015.0 |
| 20260902050639 | 74 | 130 | 0.0 | 3.0 | 0.00 | 0.00 | 0.00 | 40 | 1015.1 |
| 20260902050118 | 75 | 278 | 0.0 | 7.0 | 0.00 | 0.00 | 0.00 | 39 | 1015.0 |
| 20260902045619 | 75 | 138 | 3.0 | 8.0 | 0.00 | 0.00 | 0.00 | 38 | 1014.9 |
| 20260902045120 | 75 | 130 | 3.0 | 8.0 | 0.00 | 0.00 | 0.00 | 38 | 1015.0 |
| 20260902044629 | 75 | 167 | 2.0 | 8.0 | 0.00 | 0.00 | 0.00 | 38 | 1015.0 |
| 20260902044131 | 75 | 163 | 2.0 | 5.0 | 0.00 | 0.00 | 0.00 | 38 | 1015.0 |
| 20260902043612 | 75 | 134 | 0.0 | 6.0 | 0.00 | 0.00 | 0.00 | 37 | 1014.9 |
| 20260902043120 | 76 | 217 | 0.0 | 7.0 | 0.00 | 0.00 | 0.00 | 36 | 1014.9 |
| 20260902042621 | 76 | 137 | 4.0 | 9.0 | 0.00 | 0.00 | 0.00 | 36 | 1014.9 |
| 20260902042123 | 76 | 136 | 2.0 | 8.0 | 0.00 | 0.00 | 0.00 | 36 | 1014.9 |
| 20260902041613 | 76 | 145 | 3.0 | 8.0 | 0.00 | 0.00 | 0.00 | 36 | 1014.9 |
| 20260902041115 | 76 | 134 | 2.0 | 8.0 | 0.00 | 0.00 | 0.00 | 36 | 1014.7 |
| 20260902040615 | 76 | 141 | 2.0 | 9.0 | 0.00 | 0.00 | 0.00 | 36 | 1014.8 |
| 20260902040123 | 76 | 131 | 3.0 | 9.0 | 0.00 | 0.00 | 0.00 | 35 | 1014.8 |
| 20260902035623 | 76 | 129 | 4.0 | 9.0 | 0.00 | 0.00 | 0.00 | 35 | 1014.7 |
| 20260902035132 | 76 | 172 | 2.0 | 8.0 | 0.00 | 0.00 | 0.00 | 36 | 1014.7 |
| 20260902034613 | 76 | 118 | 3.0 | 8.0 | 0.00 | 0.00 | 0.00 | 36 | 1014.6 |
| 20260902034115 | 76 | 194 | 3.0 | 9.0 | 0.00 | 0.00 | 0.00 | 36 | 1014.6 |
| 20260902033624 | 76 | 131 | 3.0 | 8.0 | 0.00 | 0.00 | 0.00 | 36 | 1014.5 |
| 20260902033126 | 76 | 147 | 3.0 | 8.0 | 0.00 | 0.00 | 0.00 | 35 | 1014.5 |
| 20260902032629 | 76 | 123 | 3.0 | 8.0 | 0.00 | 0.00 | 0.00 | 36 | 1014.5 |
| 20260902032137 | 76 | 181 | 3.0 | 7.0 | 0.00 | 0.00 | 0.00 | 36 | 1014.4 |
| 20260902031618 | 76 | 115 | 3.0 | 9.0 | 0.00 | 0.00 | 0.00 | 36 | 1014.4 |
| 20260902031120 | 76 | 132 | 4.0 | 9.0 | 0.00 | 0.00 | 0.00 | 36 | 1014.4 |
| 20260902030628 | 77 | 147 | 4.0 | 8.0 | 0.00 | 0.00 | 0.00 | 36 | 1014.4 |
| 20260902030128 | 77 | 134 | 2.0 | 7.0 | 0.00 | 0.00 | 0.00 | 36 | 1014.3 |
| 20260902025637 | 77 | 155 | 3.0 | 12.0 | 0.00 | 0.00 | 0.00 | 36 | 1014.2 |
| 20260902025138 | 77 | 189 | 5.0 | 11.0 | 0.00 | 0.00 | 0.00 | 36 | 1014.1 |
| 20260902024617 | 77 | 165 | 4.0 | 10.0 | 0.00 | 0.00 | 0.00 | 36 | 1014.2 |
| 20260902024127 | 77 | 167 | 3.0 | 10.0 | 0.00 | 0.00 | 0.00 | 36 | 1014.1 |
| 20260902023648 | 77 | 143 | 5.0 | 10.0 | 0.00 | 0.00 | 0.00 | 37 | 1014.1 |
| 20260902023136 | 77 | 176 | 2.0 | 9.0 | 0.00 | 0.00 | 0.00 | 38 | 1014.0 |
| 20260902022616 | 77 | 141 | 5.0 | 9.0 | 0.00 | 0.00 | 0.00 | 38 | 1014.0 |
| 20260902022118 | 77 | 157 | 3.0 | 8.0 | 0.00 | 0.00 | 0.00 | 38 | 1013.9 |
| 20260902021626 | 77 | 196 | 3.0 | 8.0 | 0.00 | 0.00 | 0.00 | 37 | 1013.8 |
| 20260902021128 | 77 | 126 | 4.0 | 7.0 | 0.00 | 0.00 | 0.00 | 37 | 1013.8 |
| 20260902020656 | 77 | 158 | 2.0 | 7.0 | 0.00 | 0.00 | 0.00 | 37 | 1013.8 |
| 20260902020136 | 78 | 269 | 2.0 | 9.0 | 0.00 | 0.00 | 0.00 | 36 | 1013.8 |
| 20260902015623 | 78 | 197 | 1.0 | 6.0 | 0.00 | 0.00 | 0.00 | 36 | 1013.7 |
| 20260902015125 | 78 | 134 | 3.0 | 6.0 | 0.00 | 0.00 | 0.00 | 36 | 1013.8 |
| 20260902014635 | 79 | 136 | 2.0 | 6.0 | 0.00 | 0.00 | 0.00 | 35 | 1013.7 |
| 20260902014115 | 79 | 203 | 3.0 | 8.0 | 0.00 | 0.00 | 0.00 | 35 | 1013.8 |
| 20260902013615 | 80 | 180 | 3.0 | 13.0 | 0.00 | 0.00 | 0.00 | 34 | 1013.9 |
| 20260902013117 | 80 | 148 | 7.0 | 13.0 | 0.00 | 0.00 | 0.00 | 34 | 1013.9 |
| 20260902012625 | 81 | 126 | 2.0 | 9.0 | 0.00 | 0.00 | 0.00 | 35 | 1013.9 |
| 20260902012128 | 81 | 188 | 2.0 | 9.0 | 0.00 | 0.00 | 0.00 | 34 | 1014.0 |
| 20260902011629 | 81 | 176 | 3.0 | 10.0 | 0.00 | 0.00 | 0.00 | 34 | 1014.1 |
| 20260902011117 | 81 | 103 | 4.0 | 10.0 | 0.00 | 0.00 | 0.00 | 33 | 1014.1 |
| 20260902010617 | 81 | 141 | 3.0 | 8.0 | 0.00 | 0.00 | 0.00 | 34 | 1014.2 |
| 20260902010146 | 81 | 169 | 3.0 | 10.0 | 0.00 | 0.00 | 0.00 | 34 | 1014.3 |
| 20260902005625 | 81 | 185 | 3.0 | 13.0 | 0.00 | 0.00 | 0.00 | 35 | 1014.3 |
| 20260902005135 | 82 | 139 | 7.0 | 13.0 | 0.00 | 0.00 | 0.00 | 34 | 1014.4 |
| 20260902004617 | 82 | 208 | 3.0 | 9.0 | 0.00 | 0.00 | 0.00 | 34 | 1014.5 |
| 20260902004120 | 82 | 125 | 3.0 | 9.0 | 0.00 | 0.00 | 0.00 | 33 | 1014.5 |
| 20260902003649 | 82 | 193 | 4.0 | 9.0 | 0.00 | 0.00 | 0.00 | 33 | 1014.5 |
| 20260902003128 | 82 | 238 | 3.0 | 13.0 | 0.00 | 0.00 | 0.00 | 33 | 1014.5 |
| 20260902002637 | 82 | 175 | 2.0 | 11.0 | 0.00 | 0.00 | 0.00 | 33 | 1014.6 |
| 20260902002117 | 82 | 75 | 4.0 | 13.0 | 0.00 | 0.00 | 0.00 | 32 | 1014.5 |
| 20260902001619 | 83 | 108 | 5.0 | 14.0 | 0.00 | 0.00 | 0.00 | 33 | 1014.7 |
| 20260902001148 | 83 | 141 | 2.0 | 8.0 | 0.00 | 0.00 | 0.00 | 32 | 1014.7 |
| 20260902000629 | 83 | 181 | 3.0 | 9.0 | 0.00 | 0.00 | 0.00 | 31 | 1014.6 |
| 20260902000137 | 83 | 120 | 2.0 | 13.0 | 0.00 | 0.00 | 0.00 | 32 | 1014.6 |
| 20260901235618 | 83 | 202 | 5.0 | 9.0 | 0.00 | 0.00 | 0.00 | 32 | 1014.7 |
| 20260901235139 | 82 | 234 | 2.0 | 7.0 | 0.00 | 0.00 | 0.00 | 33 | 1014.8 |
| 20260901234627 | 82 | 257 | 3.0 | 6.0 | 0.00 | 0.00 | 0.00 | 33 | 1014.9 |
| 20260901234129 | 83 | 233 | 2.0 | 8.0 | 0.00 | 0.00 | 0.00 | 31 | 1014.9 |
| 20260901233638 | 83 | 145 | 1.0 | 9.0 | 0.00 | 0.00 | 0.00 | 32 | 1014.9 |
| 20260901233139 | 84 | 183 | 4.0 | 9.0 | 0.00 | 0.00 | 0.00 | 31 | 1015.0 |
| 20260901232619 | 83 | 228 | 3.0 | 9.0 | 0.00 | 0.00 | 0.00 | 32 | 1015.0 |
| 20260901232127 | 83 | 22 | 2.0 | 12.0 | 0.00 | 0.00 | 0.00 | 32 | 1015.0 |
| 20260901231629 | 83 | 193 | 5.0 | 16.0 | 0.00 | 0.00 | 0.00 | 31 | 1015.0 |
| 20260901231138 | 83 | 128 | 6.0 | 16.0 | 0.00 | 0.00 | 0.00 | 32 | 1015.2 |
| 20260901230619 | 83 | 98 | 4.0 | 10.0 | 0.00 | 0.00 | 0.00 | 32 | 1015.2 |
| 20260901230119 | 82 | 301 | 3.0 | 10.0 | 0.00 | 0.00 | 0.00 | 34 | 1015.2 |
| 20260901225627 | 82 | 180 | 4.0 | 9.0 | 0.00 | 0.00 | 0.00 | 32 | 1015.5 |
| 20260901225129 | 82 | 130 | 4.0 | 12.0 | 0.00 | 0.00 | 0.00 | 33 | 1015.5 |
| 20260901224630 | 81 | 136 | 3.0 | 15.0 | 0.00 | 0.00 | 0.00 | 34 | 1015.5 |
| 20260901224112 | 81 | 136 | 8.0 | 15.0 | 0.00 | 0.00 | 0.00 | 34 | 1015.6 |
| 20260901223620 | 82 | 203 | 5.0 | 13.0 | 0.00 | 0.00 | 0.00 | 34 | 1015.7 |
| 20260901223122 | 81 | 132 | 5.0 | 15.0 | 0.00 | 0.00 | 0.00 | 34 | 1015.7 |
| 20260901222650 | 82 | 150 | 5.0 | 15.0 | 0.00 | 0.00 | 0.00 | 35 | 1015.8 |
| 20260901222158 | 82 | 199 | 6.0 | 12.0 | 0.00 | 0.00 | 0.00 | 35 | 1015.9 |
| 20260901221618 | 82 | 227 | 6.0 | 18.0 | 0.00 | 0.00 | 0.00 | 35 | 1015.9 |
| 20260901221137 | 81 | 169 | 7.0 | 18.0 | 0.00 | 0.00 | 0.00 | 34 | 1015.9 |
| 20260901220644 | 81 | 167 | 5.0 | 12.0 | 0.00 | 0.00 | 0.00 | 34 | 1016.0 |
| 20260901220132 | 81 | 144 | 5.0 | 11.0 | 0.00 | 0.00 | 0.00 | 34 | 1016.3 |
| 20260901215614 | 81 | 270 | 4.0 | 16.0 | 0.00 | 0.00 | 0.00 | 34 | 1016.4 |
| 20260901215114 | 81 | 204 | 7.0 | 16.0 | 0.00 | 0.00 | 0.00 | 32 | 1016.5 |
| 20260901214621 | 81 | 210 | 8.0 | 16.0 | 0.00 | 0.00 | 0.00 | 33 | 1016.5 |
| 20260901214123 | 82 | 139 | 6.0 | 13.0 | 0.00 | 0.00 | 0.00 | 36 | 1016.5 |
| 20260901213631 | 82 | 175 | 5.0 | 12.0 | 0.00 | 0.00 | 0.00 | 36 | 1016.5 |
| 20260901213112 | 82 | 130 | 4.0 | 11.0 | 0.00 | 0.00 | 0.00 | 36 | 1016.6 |
| 20260901212640 | 81 | 268 | 3.0 | 11.0 | 0.00 | 0.00 | 0.00 | 37 | 1016.8 |
| 20260901212120 | 80 | 139 | 4.0 | 10.0 | 0.00 | 0.00 | 0.00 | 37 | 1016.9 |
| 20260901211622 | 80 | 210 | 5.0 | 10.0 | 0.00 | 0.00 | 0.00 | 36 | 1016.9 |
| 20260901211131 | 81 | 184 | 2.0 | 7.0 | 0.00 | 0.00 | 0.00 | 38 | 1016.8 |
| 20260901210652 | 81 | 240 | 2.0 | 9.0 | 0.00 | 0.00 | 0.00 | 38 | 1016.9 |
| 20260901210120 | 81 | 200 | 2.0 | 16.0 | 0.00 | 0.00 | 0.00 | 36 | 1017.0 |
| 20260901205622 | 80 | 210 | 3.0 | 16.0 | 0.00 | 0.00 | 0.00 | 39 | 1017.2 |
| 20260901205123 | 80 | 210 | 2.0 | 7.0 | 0.00 | 0.00 | 0.00 | 39 | 1017.2 |
| 20260901204632 | 79 | 298 | 2.0 | 6.0 | 0.00 | 0.00 | 0.00 | 38 | 1017.3 |
| 20260901204112 | 80 | 214 | 2.0 | 8.0 | 0.00 | 0.00 | 0.00 | 37 | 1017.5 |
| 20260901203613 | 81 | 213 | 3.0 | 19.0 | 0.00 | 0.00 | 0.00 | 37 | 1017.5 |
| 20260901203122 | 81 | 212 | 7.0 | 19.0 | 0.00 | 0.00 | 0.00 | 36 | 1017.6 |
| 20260901202643 | 81 | 136 | 3.0 | 10.0 | 0.00 | 0.00 | 0.00 | 39 | 1017.5 |
| 20260901201622 | 80 | 196 | 4.0 | 12.0 | 0.00 | 0.00 | 0.00 | 38 | 1018.0 |
| 20260901201123 | 79 | 179 | 3.0 | 12.0 | 0.00 | 0.00 | 0.00 | 38 | 1018.1 |
| 20260901200651 | 79 | 219 | 2.0 | 9.0 | 0.00 | 0.00 | 0.00 | 41 | 1018.1 |
| 20260901200138 | 80 | 15 | 2.0 | 9.0 | 0.00 | 0.00 | 0.00 | 38 | 1018.2 |
| 20260901195620 | 80 | 208 | 3.0 | 8.0 | 0.00 | 0.00 | 0.00 | 37 | 1018.3 |
| 20260901195122 | 80 | 241 | 1.0 | 11.0 | 0.00 | 0.00 | 0.00 | 39 | 1018.4 |
| 20260901194651 | 79 | 187 | 3.0 | 10.0 | 0.00 | 0.00 | 0.00 | 40 | 1018.3 |
| 20260901194130 | 78 | 238 | 3.0 | 7.0 | 0.00 | 0.00 | 0.00 | 41 | 1018.4 |
| 20260901193657 | 77 | 120 | 2.0 | 7.0 | 0.00 | 0.00 | 0.00 | 42 | 1018.5 |
| 20260901193118 | 77 | 284 | 1.0 | 11.0 | 0.00 | 0.00 | 0.00 | 42 | 1018.5 |
| 20260901192620 | 77 | 219 | 5.0 | 11.0 | 0.00 | 0.00 | 0.00 | 40 | 1018.5 |
| 20260901192128 | 77 | 191 | 4.0 | 10.0 | 0.00 | 0.00 | 0.00 | 40 | 1018.5 |
| 20260901191628 | 78 | 198 | 2.0 | 8.0 | 0.00 | 0.00 | 0.00 | 42 | 1018.6 |
| 20260901191131 | 77 | 219 | 2.0 | 14.0 | 0.00 | 0.00 | 0.00 | 42 | 1018.6 |
| 20260901190639 | 77 | 133 | 3.0 | 14.0 | 0.00 | 0.00 | 0.00 | 43 | 1018.7 |
| 20260901190118 | 77 | 300 | 1.0 | 8.0 | 0.00 | 0.00 | 0.00 | 44 | 1018.6 |
| 20260901185627 | 77 | 161 | 1.0 | 9.0 | 0.00 | 0.00 | 0.00 | 44 | 1018.8 |
| 20260901184616 | 76 | 212 | 5.0 | 12.0 | 0.00 | 0.00 | 0.00 | 42 | 1018.7 |
| 20260901184125 | 75 | 142 | 4.0 | 10.0 | 0.00 | 0.00 | 0.00 | 43 | 1018.9 |
| 20260901183626 | 75 | 153 | 3.0 | 12.0 | 0.00 | 0.00 | 0.00 | 45 | 1018.9 |
| 20260901183126 | 75 | 134 | 7.0 | 13.0 | 0.00 | 0.00 | 0.00 | 44 | 1019.1 |
| 20260901182636 | 75 | 229 | 4.0 | 13.0 | 0.00 | 0.00 | 0.00 | 45 | 1019.1 |
| 20260901182123 | 75 | 111 | 5.0 | 13.0 | 0.00 | 0.00 | 0.00 | 45 | 1019.2 |
| 20260901181621 | 75 | 200 | 3.0 | 13.0 | 0.00 | 0.00 | 0.00 | 45 | 1019.3 |
| 20260901181122 | 75 | 233 | 4.0 | 11.0 | 0.00 | 0.00 | 0.00 | 46 | 1019.3 |
| 20260901180632 | 75 | 205 | 4.0 | 10.0 | 0.00 | 0.00 | 0.00 | 46 | 1019.3 |
| 20260901180113 | 75 | 195 | 4.0 | 8.0 | 0.00 | 0.00 | 0.00 | 46 | 1019.3 |
| 20260901175613 | 74 | 145 | 5.0 | 11.0 | 0.00 | 0.00 | 0.00 | 46 | 1019.2 |
| 20260901175121 | 74 | 139 | 4.0 | 11.0 | 0.00 | 0.00 | 0.00 | 47 | 1019.3 |
| 20260901174623 | 74 | 169 | 2.0 | 5.0 | 0.00 | 0.00 | 0.00 | 48 | 1019.4 |
| 20260901174124 | 74 | 206 | 1.0 | 4.0 | 0.00 | 0.00 | 0.00 | 50 | 1019.3 |
| 20260901173635 | 74 | 147 | 1.0 | 4.0 | 0.00 | 0.00 | 0.00 | 49 | 1019.3 |
| 20260901173115 | 74 | 205 | 1.0 | 2.0 | 0.00 | 0.00 | 0.00 | 48 | 1019.3 |
| 20260901172643 | 74 | 290 | 1.0 | 1.0 | 0.00 | 0.00 | 0.00 | 46 | 1019.4 |
| 20260901172124 | 74 | 131 | 0.0 | 1.0 | 0.00 | 0.00 | 0.00 | 48 | 1019.4 |
| 20260901171632 | 74 | 153 | 0.0 | 3.0 | 0.00 | 0.00 | 0.00 | 50 | 1019.4 |
| 20260901171114 | 73 | 206 | 2.0 | 5.0 | 0.00 | 0.00 | 0.00 | 49 | 1019.5 |
| 20260901170615 | 73 | 170 | 2.0 | 5.0 | 0.00 | 0.00 | 0.00 | 48 | 1019.4 |
| 20260901170121 | 73 | 238 | 2.0 | 6.0 | 0.00 | 0.00 | 0.00 | 49 | 1019.4 |
| 20260901165652 | 73 | 155 | 3.0 | 6.0 | 0.00 | 0.00 | 0.00 | 50 | 1019.4 |
| 20260901165130 | 72 | 157 | 3.0 | 6.0 | 0.00 | 0.00 | 0.00 | 50 | 1019.4 |
| 20260901164611 | 72 | 131 | 1.0 | 6.0 | 0.00 | 0.00 | 0.00 | 50 | 1019.4 |
| 20260901164112 | 72 | 96 | 1.0 | 4.0 | 0.00 | 0.00 | 0.00 | 50 | 1019.3 |